Time,TemperatureF,DewpointF,PressureIn,WindDirection,WindDirectionDegrees,WindSpeedMPH,WindSpeedGustMPH,Humidity,HourlyPrecipIn,Conditions,Clouds,dailyrainin,SolarRadiationWatts/m^2,SoftwareType,DateUTC
2013-04-30 02:21:00,53.0,53.0,-100.00,ESE,108,6.0,12.0,100,-99.99,,,0.14,1.000000,,2013-04-30 06:21:00,
2013-04-30 02:32:00,53.0,53.0,-100.00,ESE,108,6.0,12.0,100,-99.99,,,0.14,1.000000,,2013-04-30 06:32:00,
2013-04-30 02:42:00,53.0,53.0,-100.00,ESE,108,6.0,12.0,100,-99.99,,,0.14,1.000000,,2013-04-30 06:42:00,
2013-04-30 02:52:00,53.0,53.0,-100.00,ESE,108,6.0,12.0,100,-99.99,,,0.14,1.000000,,2013-04-30 06:52:00,
2013-04-30 03:21:00,53.0,53.0,-100.00,East,94,4.0,12.0,100,0.00,,,0.14,1.000000,,2013-04-30 07:21:00,
2013-04-30 03:32:00,53.0,53.0,-100.00,East,94,4.0,12.0,100,0.00,,,0.14,1.000000,,2013-04-30 07:32:00,
2013-04-30 03:42:00,53.0,53.0,-100.00,East,94,4.0,12.0,100,0.00,,,0.14,1.000000,,2013-04-30 07:42:00,
2013-04-30 03:52:00,53.0,53.0,-100.00,East,94,4.0,12.0,100,0.00,,,0.14,1.000000,,2013-04-30 07:52:00,
2013-04-30 04:22:00,53.0,53.0,-100.00,ENE,71,5.0,12.0,100,0.00,,,0.14,1.000000,,2013-04-30 08:22:00,
2013-04-30 04:32:00,53.0,53.0,-100.00,ENE,71,5.0,12.0,100,0.00,,,0.14,1.000000,,2013-04-30 08:32:00,
2013-04-30 04:42:00,53.0,53.0,-100.00,ENE,71,5.0,12.0,100,0.00,,,0.14,1.000000,,2013-04-30 08:42:00,
2013-04-30 04:52:00,53.0,53.0,-100.00,ENE,71,5.0,12.0,100,0.00,,,0.14,1.000000,,2013-04-30 08:52:00,
2013-04-30 05:22:00,52.0,52.0,-100.00,ENE,60,3.0,9.0,100,0.00,,,0.14,1.000000,,2013-04-30 09:22:00,
2013-04-30 05:33:00,52.0,52.0,-100.00,ENE,60,3.0,9.0,100,0.00,,,0.14,1.000000,,2013-04-30 09:33:00,
2013-04-30 05:43:00,52.0,52.0,-100.00,ENE,60,3.0,9.0,100,0.00,,,0.14,1.000000,,2013-04-30 09:43:00,
2013-04-30 05:52:00,52.0,52.0,-100.00,ENE,60,3.0,9.0,100,0.00,,,0.14,1.000000,,2013-04-30 09:52:00,
2013-04-30 06:22:00,52.0,52.0,-100.00,East,79,7.0,10.0,100,0.00,,,0.14,1.000000,,2013-04-30 10:22:00,
2013-04-30 06:32:00,52.0,52.0,-100.00,East,79,7.0,10.0,100,0.00,,,0.14,1.000000,,2013-04-30 10:32:00,
2013-04-30 06:41:00,52.0,52.0,-100.00,East,79,7.0,10.0,100,0.00,,,0.14,1.000000,,2013-04-30 10:41:00,
2013-04-30 06:52:00,52.0,52.0,-100.00,East,79,7.0,10.0,100,0.00,,,0.14,1.000000,,2013-04-30 10:52:00,
2013-04-30 07:21:00,52.0,52.0,-100.00,East,82,7.0,13.0,100,0.00,,,0.14,7.000000,,2013-04-30 11:21:00,
2013-04-30 07:32:00,52.0,52.0,-100.00,East,82,7.0,13.0,100,0.00,,,0.14,7.000000,,2013-04-30 11:32:00,
2013-04-30 07:42:00,52.0,52.0,-100.00,East,82,7.0,13.0,100,0.00,,,0.14,7.000000,,2013-04-30 11:42:00,
2013-04-30 07:51:00,52.0,52.0,-100.00,East,82,7.0,13.0,100,0.00,,,0.14,7.000000,,2013-04-30 11:51:00,
2013-04-30 08:22:00,52.0,52.0,-100.00,East,89,8.0,13.0,100,0.00,,,0.13,44.000000,,2013-04-30 12:22:00,
2013-04-30 08:31:00,52.0,52.0,-100.00,East,89,8.0,13.0,100,0.00,,,0.13,44.000000,,2013-04-30 12:31:00,
2013-04-30 08:41:00,52.0,52.0,-100.00,East,89,8.0,13.0,100,0.00,,,0.13,44.000000,,2013-04-30 12:41:00,
2013-04-30 08:51:00,52.0,52.0,-100.00,East,89,8.0,13.0,100,0.00,,,0.13,44.000000,,2013-04-30 12:51:00,
2013-04-30 11:21:00,57.0,53.0,-100.00,ESE,106,8.0,19.0,85,-99.99,,,0.09,456.000000,,2013-04-30 15:21:00,
2013-04-30 11:32:00,57.0,53.0,-100.00,ESE,106,8.0,19.0,85,-99.99,,,0.09,456.000000,,2013-04-30 15:32:00,
2013-04-30 11:42:00,57.0,53.0,-100.00,ESE,106,8.0,19.0,85,-99.99,,,0.09,456.000000,,2013-04-30 15:42:00,
2013-04-30 11:52:00,57.0,53.0,-100.00,ESE,106,8.0,19.0,85,-99.99,,,0.09,456.000000,,2013-04-30 15:52:00,
2013-04-30 12:23:00,59.0,53.0,-100.00,ESE,117,7.0,20.0,80,0.00,,,0.07,543.000000,,2013-04-30 16:23:00,
2013-04-30 12:33:00,59.0,53.0,-100.00,ESE,117,7.0,20.0,80,0.00,,,0.07,543.000000,,2013-04-30 16:33:00,
2013-04-30 12:42:00,59.0,53.0,-100.00,ESE,117,7.0,20.0,80,0.00,,,0.07,543.000000,,2013-04-30 16:42:00,
2013-04-30 12:52:00,59.0,53.0,-100.00,ESE,117,7.0,20.0,80,0.00,,,0.07,543.000000,,2013-04-30 16:52:00,
2013-04-30 13:22:00,61.0,52.0,-100.00,SE,126,5.0,20.0,73,0.00,,,0.06,649.000000,,2013-04-30 17:22:00,
2013-04-30 13:32:00,61.0,52.0,-100.00,SE,126,5.0,20.0,73,0.00,,,0.06,649.000000,,2013-04-30 17:32:00,
2013-04-30 13:42:00,61.0,52.0,-100.00,SE,126,5.0,20.0,73,0.00,,,0.06,649.000000,,2013-04-30 17:42:00,
2013-04-30 13:52:00,61.0,52.0,-100.00,SE,126,5.0,20.0,73,0.00,,,0.06,649.000000,,2013-04-30 17:52:00,
2013-04-30 14:22:00,62.0,52.0,-100.00,ESE,103,8.0,20.0,70,0.00,,,0.06,478.000000,,2013-04-30 18:22:00,
2013-04-30 14:32:00,62.0,52.0,-100.00,ESE,103,8.0,20.0,70,0.00,,,0.06,478.000000,,2013-04-30 18:32:00,
2013-04-30 14:42:00,62.0,52.0,-100.00,ESE,103,8.0,20.0,70,0.00,,,0.06,478.000000,,2013-04-30 18:42:00,
2013-04-30 14:52:00,62.0,52.0,-100.00,ESE,103,8.0,20.0,70,0.00,,,0.06,478.000000,,2013-04-30 18:52:00,
2013-04-30 15:22:00,64.0,52.0,-100.00,East,80,5.0,13.0,64,0.00,,,0.06,447.000000,,2013-04-30 19:22:00,
2013-04-30 15:32:00,64.0,52.0,-100.00,East,80,5.0,13.0,64,0.00,,,0.06,447.000000,,2013-04-30 19:32:00,
2013-04-30 15:42:00,64.0,52.0,-100.00,East,80,5.0,13.0,64,0.00,,,0.06,447.000000,,2013-04-30 19:42:00,
2013-04-30 15:52:00,64.0,52.0,-100.00,East,80,5.0,13.0,64,0.00,,,0.06,447.000000,,2013-04-30 19:52:00,
2013-04-30 16:22:00,65.0,49.0,-100.00,SE,146,4.0,11.0,57,0.00,,,0.05,389.000000,,2013-04-30 20:22:00,
2013-04-30 16:32:00,65.0,49.0,-100.00,SE,146,4.0,11.0,57,0.00,,,0.05,389.000000,,2013-04-30 20:32:00,
2013-04-30 16:42:00,65.0,49.0,-100.00,SE,146,4.0,11.0,57,0.00,,,0.05,389.000000,,2013-04-30 20:42:00,
2013-04-30 16:52:00,65.0,49.0,-100.00,SE,146,4.0,11.0,57,0.00,,,0.05,389.000000,,2013-04-30 20:52:00,
2013-04-30 17:22:00,64.0,48.0,-100.00,ESE,116,6.0,15.0,57,0.00,,,0.04,310.000000,,2013-04-30 21:22:00,
2013-04-30 17:32:00,64.0,48.0,-100.00,ESE,116,6.0,15.0,57,0.00,,,0.04,310.000000,,2013-04-30 21:32:00,
2013-04-30 17:42:00,64.0,48.0,-100.00,ESE,116,6.0,15.0,57,0.00,,,0.04,310.000000,,2013-04-30 21:42:00,
2013-04-30 17:53:00,64.0,48.0,-100.00,ESE,116,6.0,15.0,57,0.00,,,0.04,310.000000,,2013-04-30 21:53:00,
2013-04-30 18:23:00,64.0,48.0,-100.00,ESE,113,6.0,14.0,56,0.00,,,0.03,234.000000,,2013-04-30 22:23:00,
2013-04-30 18:33:00,64.0,48.0,-100.00,ESE,113,6.0,14.0,56,0.00,,,0.03,234.000000,,2013-04-30 22:33:00,
2013-04-30 18:42:00,64.0,48.0,-100.00,ESE,113,6.0,14.0,56,0.00,,,0.03,234.000000,,2013-04-30 22:42:00,
2013-04-30 18:52:00,64.0,48.0,-100.00,ESE,113,6.0,14.0,56,0.00,,,0.03,234.000000,,2013-04-30 22:52:00,
2013-04-30 19:22:00,63.0,48.0,-100.00,East,82,8.0,16.0,58,0.00,,,0.02,142.000000,,2013-04-30 23:22:00,
2013-04-30 19:32:00,63.0,48.0,-100.00,East,82,8.0,16.0,58,0.00,,,0.02,142.000000,,2013-04-30 23:32:00,
2013-04-30 19:42:00,63.0,48.0,-100.00,East,82,8.0,16.0,58,0.00,,,0.02,142.000000,,2013-04-30 23:42:00,
2013-04-30 19:52:00,63.0,48.0,-100.00,East,82,8.0,16.0,58,0.00,,,0.02,142.000000,,2013-04-30 23:52:00,
2013-04-30 20:22:00,61.0,48.0,-100.00,East,98,4.0,14.0,62,0.00,,,0.01,26.000000,,2013-05-01 00:22:00,
2013-04-30 20:32:00,61.0,48.0,-100.00,East,98,4.0,14.0,62,0.00,,,0.01,26.000000,,2013-05-01 00:32:00,
2013-04-30 20:42:00,61.0,48.0,-100.00,East,98,4.0,14.0,62,0.00,,,0.01,26.000000,,2013-05-01 00:42:00,
2013-04-30 20:51:00,61.0,48.0,-100.00,East,98,4.0,14.0,62,0.00,,,0.01,26.000000,,2013-05-01 00:51:00,
2013-04-30 21:21:00,59.0,48.0,-100.00,East,92,7.0,14.0,67,0.00,,,-99.99,2.000000,,2013-05-01 01:21:00,
2013-04-30 21:32:00,59.0,48.0,-100.00,East,92,7.0,14.0,67,0.00,,,-99.99,2.000000,,2013-05-01 01:32:00,
2013-04-30 21:42:00,59.0,48.0,-100.00,East,92,7.0,14.0,67,0.00,,,-99.99,2.000000,,2013-05-01 01:42:00,
2013-04-30 21:52:00,59.0,48.0,-100.00,East,92,7.0,14.0,67,0.00,,,-99.99,2.000000,,2013-05-01 01:52:00,
2013-04-30 22:22:00,57.0,43.0,-100.00,East,87,7.0,12.0,59,0.00,,,0.01,1.000000,,2013-05-01 02:22:00,
2013-04-30 22:32:00,57.0,43.0,-100.00,East,87,7.0,12.0,59,0.00,,,0.01,1.000000,,2013-05-01 02:32:00,
2013-04-30 22:42:00,57.0,43.0,-100.00,East,87,7.0,12.0,59,0.00,,,0.01,1.000000,,2013-05-01 02:42:00,
2013-04-30 22:52:00,57.0,43.0,-100.00,East,87,7.0,12.0,59,0.00,,,0.01,1.000000,,2013-05-01 02:52:00,
2013-04-30 23:22:00,55.0,37.0,-100.00,ESE,116,6.0,17.0,50,0.00,,,0.01,1.000000,,2013-05-01 03:22:00,
2013-04-30 23:33:00,55.0,37.0,-100.00,ESE,116,6.0,17.0,50,0.00,,,0.01,1.000000,,2013-05-01 03:33:00,
2013-04-30 23:43:00,55.0,37.0,-100.00,ESE,116,6.0,17.0,50,0.00,,,0.01,1.000000,,2013-05-01 03:43:00,
2013-04-30 23:53:00,55.0,37.0,-100.00,ESE,116,6.0,17.0,50,0.00,,,0.01,1.000000,,2013-05-01 03:53:00,